loading
|

STARLINK-11187, 60184

Orbit data source: Space-Track

STARLINK-11187, 60184 is a payload satellite owned by SpaceX/Seattle (US) in LEO that was launched on Wed, 03 Jul 2024 UTC via an FALCON 9 launch vehicle from the Air Force Eastern Test Range (AFETR). Payloads include a variety of satellites, spacecraft, and rockets equipped with specific instruments for various scientific and technological missions. These include communications satellites like Starlink; space stations such as the ISS; scientific satellites like the Hubble; Earth observation satellites from companies like Planet Labs, Umbra, and HawkEye 360; GPS; miniature CubeSats for education and research; and military/defense satellites.

Loading next visibility...
Loading greatness...
STARLINK-11187 details
Identifier
60184, 2024-124B
Orbit
LEO
Last TLE update11 hours ago
Origin
Flag of USSpaceX/Seattle (US)
ManufacturerSpaceX/Seattle
Mission statusOperational
MissionUnknown
Bus & MotorSTARLINK V2M, Unknown motor
Mass750 kg wet, ~700 kg dry
Launch date (UTC)
2024-07-03 (3 months ago)
Launch vehicle
FALCON 9
Launch site
Air Force Eastern Test Range (AFETR)
Object type
Payload
Rocket body
Debris
Radar Cross SectionLarge (>1 m²)

Expand to show TLE details & history

TLE from 11 hours ago
0 STARLINK-11187
1 60184U 24124B   24261.47803131  .00005436  00000-0  49663-4 0  9994
2 60184  53.1576 294.3154 0000848  76.5442 283.5670 15.69724867 12003
Epoch: 2024-09-17T11:28Z
Definitive object data (Epoch: 2024-09-17T11:28:21.905Z)
Latitude-0.00003°
Longitude125.33199°
Altitude360.465 km
Speed7.694 km/s
True Right ascension19h 37m 15s
True Declination0° 00' 00"
Sunlit
Object was in full shadow at TLE epoch
Predictive object data (real-time)
Latitude5.26995°
Longitude127.06902°
Altitude359.87 km
Speed7.695 km/s
Apparent Right ascension22h 32m 59s
Apparent Declination-26° 37' 58"
Sunlit
Object is in full shadow
Predictive observer data (real-time)
Local Sidereal Time15:00:40
Azimuth98.231° ESE
Elevation-33.808°
Doppler factor1
Orbital elements
Apogee360.517 km
Perigee359.374 km
Semi-major axis6,738.082 km
Eccentricity0.0000848
Inclination53.1576°
RAAN294.3154°
Arg. of periapsis76.5442°
True anomaly283.55755°
Mean anomaly283.567°
Eccentric anomaly283.56228°
Mean motion3.92409 °/min
BSTAR0.000049663
Period91.74 mins
No data available

STARLINK-11187 Visibility forecast

Observer location: 39.9160978°, -105.1181434

STARLINK-11187 is not visible in the next 10 days
Span
Click to sort rows by Start time (UTC) header in descending order
Start Az.
Max El. time (UTC)
Max El. Az.
Max El.
End time (UTC)
End Az.